User: anonymous   Login
Location: Unspecified
(0.0000°N, 0.0000°E)
Time: 21:44:57
(UTC+00:00)
Language:

COSMOS 2390 - Orbit

View from above orbital plane
View from above orbital plane
View from above satellite
View from above satellite

Ground track
Ground track

The orbit data is extracted from the following two-line orbital elements,

1 27464U 02036A   17117.76167822 +.00000019 +00000-0 +65720-4 0  9994
2 27464 082.4804 271.5967 0025013 359.8222 000.2848 12.44563649672652
Epoch (UTC): 27 April 2017 18:16:48
Eccentricity: 0.0025013
inclination: 82.4804°
perigee height: 1467 km
apogee height: 1507 km
right ascension of ascending node: 271.5967°
argument of perigee: 359.8222°
revolutions per day: 12.44563649
mean anomaly at epoch: 0.2848°
orbit number at epoch: 67265

The dashed part of the orbit path shows where the satellite is in the earth's shadow,  

DLR